Weather in Novooleksandrivka

Ukraine / Dnipropetrovsk Region     48°14′12″N   35°30′57″E
temp.,
°C
wind,
m/s
gust,
m/s
humid.,
%
clouds,
%
prec.,
mm/h
press.,
hPa
HPBL,
m
22 january, sat
sat2223:00−5sw612865 0.0 1011349
02:00−6sw511895 0.0 1011297
05:00−6sw5109476 0.0 1011284
08:00−7sw510959 0.0 1012258
11:00−3sw698391 0.0 1012573
14:00−2sw6877100 0.0 1013976
17:00−3sw4781100 0.0 1014342
20:00−4sw258996 0.1 1015122
23 january, sun
sun2323:00−4ssw2389100 0.0 101661
02:00−7ssw11945 0.0 101610
05:00−8ese2295100 0.0 101715
08:00−7ene3493100 0.0 101974
11:00−3ne4582100 0.0 1019282
14:00−3ne5882100 0.0 1020470
17:00−5nne61291100 0.0 1021407
20:00−5nne71490100 0.0 1022481
24 january, mon
mon2423:00−5nne81593100 0.1 1021536
02:00−5nne81594100 1.6 1021603
05:00−5nne71495100 1.4 1020550
08:00−4nne71396100 3.1 1021518
11:00−2ne7109389 0.8 1021584
14:00−2ene5787100 0.9 1022581
17:00−4ne4895100 0.1 1023293
20:00−6ne4795100 0.3 1024247
25 january, tue
tue2523:00−5nne4796100 0.8 1024262
02:00−6nne3596100 2.2 1023226
05:00−6n3497100 0.9 1022129
08:00−6nne2396100 1.4 1023157
11:00−4ssw1295100 1.2 1023247
14:00−4sw2495100 2.4 1022394
17:00−4ssw3696100 1.1 1022348
20:00−5ssw3796100 1.4 1022335
26 january, wed
wed2623:00−5s269798 0.9 1021338
02:00−6s3697100 1.3 1021181
05:00−6s239799 0.6 1020164
08:00−7ssw1297100 0.8 102040
11:00−5s2489100 0.1 1020454
14:00−4wsw1190100 0.4 1019275
17:00−8n2297100 0.1 102016
20:00−10nnw349879 0.1 102041